Cloud_Cover
5 5 5 5 5 5 5 5 5 5 28 63 69 100 100 63 48 5 100 92 100 76 100 100 100 100 88 100 65 27 98 99 39 70 100 1 0 18 0 1 3 5 5
5 5 5 4 4 5 5 5 5 5 27 26 95 100 100 100 100 28 100 100 100 100 100 100 100 100 100 100 56 100 88 88 32 100 58 0 0 40 0 1 5 5 5
3 2 0 0 5 5 5 4 0 0 5 5 5 5 8 95 100 100 100 100 100 100 100 100 100 100 100 100 100 100 99 79 20 100 8 3 0 89 4 4 2 5 5
3 0 1 5 5 5 4 0 0 0 0 0 1 3 5 77 100 100 100 100 100 100 100 100 100 100 100 100 81 100 100 100 66 100 96 72 0 36 2 2 4 5 5
2 10 4 5 5 5 0 0 0 0 0 0 2 16 20 20 82 50 100 100 100 100 100 100 100 100 100 100 100 100 100 100 100 100 100 100 34 4 28 0 10 47 5
20 0 5 5 5 5 0 0 0 0 0 0 16 8 100 10 5 6 28 100 100 100 100 100 100 100 100 100 100 100 100 100 100 100 100 100 98 0 92 5 100 100 5
2 5 5 5 5 5 5 4 8 1 2 6 3 0 3 4 6 91 10 100 89 100 100 100 100 100 100 100 100 100 98 100 100 100 100 100 42 4 91 5 100 37 64
0 2 5 5 5 5 5 5 1 0 2 5 7 2 3 1 2 35 12 34 39 100 100 100 100 100 100 100 100 100 100 100 100 100 100 100 67 5 10 98 16 40 80
89 3 3 2 5 5 5 4 4 5 5 4 2 7 10 0 0 0 4 5 5 70 100 100 100 100 100 100 100 100 100 99 100 100 100 69 58 5 1 21 24 37 17
45 0 0 0 3 5 83 5 5 16 67 60 2 2 1 4 0 0 0 5 5 35 100 100 100 100 100 100 100 100 89 93 97 100 100 100 99 17 28 5 12 99 100
27 3 0 0 0 2 26 100 96 10 8 7 5 3 5 11 6 0 0 0 2 55 100 100 100 100 100 100 100 100 100 86 100 79 100 100 74 100 93 13 91 100 56
0 4 0 0 0 24 100 98 100 100 98 91 71 61 11 59 93 93 1 0 0 14 100 100 88 100 100 100 100 100 79 43 42 89 100 100 100 100 46 100 98 68 54
65 100 97 17 0 7 64 45 100 98 40 58 50 95 78 98 88 25 100 100 33 0 37 82 99 56 100 93 100 100 76 71 84 84 100 100 100 100 37 100 100 58 100
0 48 43 66 30 10 99 5 89 50 100 32 37 5 3 45 5 5 92 100 100 54 3 32 100 73 100 34 61 100 100 57 100 100 85 100 100 100 100 100 70 5 100
0 0 6 79 4 2 35 45 92 69 54 100 36 15 5 5 5 5 5 60 79 100 24 0 71 99 99 94 68 10 100 80 54 81 100 97 100 99 84 100 40 69 100
0 0 57 4 0 3 32 75 14 15 94 14 99 42 79 83 5 5 12 58 13 37 100 100 100 100 100 100 100 86 99 91 57 31 14 28 91 92 94 100 100 100 99
5 0 5 5 5 60 11 83 65 96 75 99 93 97 51 59 20 10 6 5 6 18 55 100 100 100 100 100 100 100 6 70 99 33 5 12 100 91 50 100 100 100 100
45 0 5 71 17 100 100 49 41 89 100 98 88 100 90 60 90 76 39 23 10 0 42 100 100 100 100 100 100 100 99 100 100 100 28 85 65 70 82 100 100 100 87
0 0 1 49 100 100 100 100 100 100 75 100 64 89 90 39 85 100 100 96 24 39 5 100 100 100 100 100 100 100 100 100 100 100 100 97 90 100 100 100 100 100 97
100 4 8 96 100 100 100 100 100 100 100 77 84 71 90 15 94 28 100 100 64 6 5 8 86 100 100 100 100 100 52 58 99 100 100 100 100 100 100 100 100 100 100
2 64 100 100 100 100 100 100 100 100 100 100 86 51 4 5 1 9 5 18 100 22 9 5 40 99 100 100 65 46 5 44 100 100 100 100 100 100 94 100 100 100 100
2 7 100 100 100 100 100 100 100 100 100 100 85 7 9 1 0 3 3 9 90 86 68 4 87 100 100 100 45 52 5 5 6 89 100 100 100 100 99 40 100 100 100
1 4 21 100 100 100 100 100 100 100 100 100 94 6 0 3 0 0 0 0 1 5 5 18 5 98 48 88 100 15 72 5 27 96 100 100 100 76 57 73 95 100 100
4 6 5 65 100 100 100 100 100 100 100 100 99 8 0 0 0 0 0 2 0 1 5 3 32 97 100 56 100 100 82 42 36 88 82 95 81 77 100 40 100 100 100
80 59 18 58 100 100 100 100 100 100 100 88 7 5 0 13 61 0 1 97 19 2 5 7 5 5 77 100 49 100 100 87 5 31 76 97 100 100 100 95 100 100 100
95 100 86 63 47 4 2 54 91 100 99 5 5 4 6 46 4 4 4 56 18 5 5 9 5 12 8 65 99 66 43 29 100 5 69 100 100 100 100 93 100 100 100